TimeCST,TemperatureF,Dew PointF,Humidity,Sea Level PressureIn,VisibilityMPH,Wind Direction,Wind SpeedMPH,Gust SpeedMPH,PrecipitationIn,Events,Conditions,WindDirDegrees,DateUTC
12:56 AM,24.1,19.0,81,29.80,10.0,SW,6.9,-,N/A,,Clear,230,2013-02-13 06:56:00
1:56 AM,24.1,19.0,81,29.79,10.0,SW,8.1,-,N/A,,Mostly Cloudy,220,2013-02-13 07:56:00
2:56 AM,21.9,18.0,85,29.78,10.0,SW,5.8,-,N/A,,Scattered Clouds,230,2013-02-13 08:56:00
3:56 AM,21.0,17.1,85,29.77,10.0,SW,5.8,-,N/A,,Mostly Cloudy,220,2013-02-13 09:56:00
4:56 AM,21.9,18.0,85,29.76,10.0,SW,4.6,-,N/A,,Overcast,230,2013-02-13 10:56:00
5:56 AM,21.9,18.0,85,29.76,10.0,WSW,5.8,-,N/A,,Overcast,240,2013-02-13 11:56:00
6:56 AM,21.9,18.0,85,29.74,10.0,SW,5.8,-,N/A,,Overcast,220,2013-02-13 12:56:00
7:56 AM,21.9,18.0,85,29.75,9.0,WSW,5.8,-,N/A,,Overcast,250,2013-02-13 13:56:00
8:56 AM,23.0,18.0,81,29.75,9.0,WSW,8.1,-,N/A,,Mostly Cloudy,250,2013-02-13 14:56:00
9:56 AM,25.0,19.0,78,29.74,10.0,SW,5.8,-,N/A,,Mostly Cloudy,230,2013-02-13 15:56:00
10:56 AM,28.0,21.0,75,29.72,10.0,WSW,8.1,-,N/A,,Overcast,240,2013-02-13 16:56:00
11:56 AM,30.9,21.9,69,29.71,10.0,West,5.8,-,N/A,,Overcast,260,2013-02-13 17:56:00
12:56 PM,30.9,21.9,69,29.70,10.0,SW,8.1,-,N/A,,Overcast,230,2013-02-13 18:56:00
1:56 PM,33.1,24.1,70,29.69,10.0,WSW,5.8,-,0.00,,Overcast,250,2013-02-13 19:56:00
2:56 PM,34.0,24.1,67,29.68,10.0,SSW,6.9,-,N/A,,Overcast,210,2013-02-13 20:56:00
3:56 PM,35.1,24.1,64,29.67,10.0,SSW,4.6,-,N/A,,Overcast,210,2013-02-13 21:56:00
4:56 PM,35.1,25.0,67,29.66,10.0,SSW,6.9,-,N/A,,Overcast,210,2013-02-13 22:56:00
5:56 PM,34.0,26.1,73,29.67,10.0,SSW,4.6,-,N/A,,Overcast,210,2013-02-13 23:56:00
6:56 PM,34.0,26.1,73,29.67,9.0,SSW,6.9,-,0.00,Snow,Light Snow,210,2013-02-14 00:56:00
7:56 PM,32.0,28.9,88,29.66,4.0,SSW,5.8,-,0.00,Snow,Light Snow,200,2013-02-14 01:56:00
8:26 PM,32.0,30.2,93,29.61,2.0,Calm,Calm,-,0.00,Snow,Light Snow,0,2013-02-14 02:26:00
8:36 PM,32.0,30.2,93,29.61,1.8,Calm,Calm,-,0.00,Snow,Light Snow,0,2013-02-14 02:36:00
8:56 PM,32.0,30.0,92,29.64,1.0,SE,3.5,-,0.01,Snow,Light Snow,140,2013-02-14 02:56:00
9:34 PM,32.0,30.2,93,29.58,0.8,East,3.5,-,0.03,Snow,Light Snow,90,2013-02-14 03:34:00
9:44 PM,32.0,30.2,93,29.58,1.0,East,3.5,-,0.03,Snow,Light Snow,80,2013-02-14 03:44:00
9:53 PM,32.0,30.2,93,29.58,1.2,ENE,3.5,-,0.04,Snow,Light Snow,70,2013-02-14 03:53:00
9:56 PM,32.0,30.0,92,29.61,1.2,ENE,3.5,-,0.04,Snow,Light Snow,70,2013-02-14 03:56:00
10:03 PM,32.0,30.2,93,29.57,0.8,ENE,3.5,-,0.00,Snow,Light Snow,70,2013-02-14 04:03:00
10:17 PM,32.0,30.2,93,29.57,1.0,East,4.6,-,0.01,Snow,Light Snow,80,2013-02-14 04:17:00
10:42 PM,32.0,30.2,93,29.56,0.8,East,5.8,-,0.04,Snow,Light Snow,90,2013-02-14 04:42:00
10:56 PM,32.0,30.0,92,29.59,1.0,East,4.6,-,0.05,Snow,Light Snow,90,2013-02-14 04:56:00
11:07 PM,32.0,30.2,93,29.55,0.8,East,5.8,-,0.01,Snow,Light Snow,90,2013-02-14 05:07:00
11:23 PM,32.0,30.2,93,29.55,1.0,East,4.6,-,0.03,Snow,Light Snow,80,2013-02-14 05:23:00
11:35 PM,32.0,30.2,93,29.55,0.8,ENE,4.6,-,0.04,Snow,Light Snow,70,2013-02-14 05:35:00
11:56 PM,32.0,30.0,92,29.58,0.8,ENE,5.8,-,0.07,Snow,Light Snow,70,2013-02-14 05:56:00